Change the Weather History Date:

Saturday, January 25, 2014

  Actual Average Record
Temperature  
Mean Temperature 25 °F 33 °F  
Max Temperature 31 °F 42 °F 75 °F (1967)
Min Temperature 19 °F 24 °F 0 °F (1897)
Degree Days  
Heating Degree Days 40 32  
Month to date heating degree days 903 800  
Since 1 July heating degree days 2611 2581  
Cooling Degree Days 0 0  
Month to date cooling degree days 0 0  
Year to date cooling degree days 0 0  
Moisture  
Dew Point 7 °F    
Average Humidity 49    
Maximum Humidity 63    
Minimum Humidity 35    
Precipitation  
Precipitation T in 0.10 in 1.83 in (1978)
Month to date precipitation 2.68 2.46  
Year to date precipitation 2.68 2.46  
Snow  
Snow 0.20 in 0.20 in 14.90 in (2000)
Month to date snowfall 9.5 5.1  
Since 1 July snowfall 12.4 8.5  
Snow Depth 1.00 in    
Sea Level Pressure  
Sea Level Pressure 29.67 in    
Wind  
Wind Speed 10 mph (SW)    
Max Wind Speed 25 mph    
Max Gust Speed 32 mph    
Visibility 9 miles    
Events Snow    
T = Trace of Precipitation, MM = Missing Value Source: NWS Daily Summary

Daily Weather History Graph

Daily Weather History Graph

Search for Another Location

Airport or City:

Trip Planner

Search our weather history database for the weather conditions in past years. The results will help you decide how hot, cold, wet, or windy it might be!

Date:

Astronomy

Jan. 25, 2014 Rise Set
Actual Time 7:19 AM EST 5:19 PM EST
Civil Twilight 6:50 AM EST 5:48 PM EST
Nautical Twilight 6:18 AM EST 6:20 PM EST
Astronomical Twilight 5:46 AM EST 6:52 PM EST
Moon 1:49 AM EST (1/25) 12:18 PM EST (1/25)
Length of Visible Light 10h 57m
Length of Day
10h 00m
Waning Crescent, 34% of the Moon is Illuminated
Jan 25
Waning Crescent
Jan 30
New
Feb 6
First Quarter
Feb 14
Full
Feb 22
Last Quarter

Hourly Weather History & Observations

Time (EST) Temp. Windchill Dew Point Humidity Pressure Visibility Wind Dir Wind Speed Gust Speed Precip Events Conditions
12:54 AM 19.9 °F 8.6 °F -2.9 °F 37% 30.05 in 10.0 mi SSW 10.4 mph 17.3 mph N/A   Overcast
1:54 AM 19.9 °F 10.1 °F -2.9 °F 37% 30.02 in 10.0 mi SSW 8.1 mph 16.1 mph N/A   Mostly Cloudy
2:54 AM 19.9 °F 9.3 °F -2.9 °F 37% 29.97 in 10.0 mi South 9.2 mph 17.3 mph N/A   Mostly Cloudy
3:54 AM 19.9 °F 10.1 °F -2.0 °F 38% 29.92 in 10.0 mi SSW 8.1 mph - N/A   Mostly Cloudy
4:54 AM 19.9 °F 9.3 °F -2.0 °F 38% 29.87 in 10.0 mi South 9.2 mph - N/A   Overcast
5:54 AM 21.0 °F 9.9 °F -0.9 °F 38% 29.83 in 10.0 mi SSW 10.4 mph 23.0 mph N/A   Overcast
6:54 AM 21.9 °F 11.7 °F -0.9 °F 37% 29.81 in 10.0 mi SSW 9.2 mph 21.9 mph N/A   Mostly Cloudy
7:54 AM 21.9 °F 11.7 °F -0.0 °F 38% 29.77 in 10.0 mi SSW 9.2 mph 19.6 mph N/A   Mostly Cloudy
8:54 AM 21.9 °F 11.0 °F -0.0 °F 38% 29.74 in 10.0 mi SSW 10.4 mph - N/A   Overcast
9:30 AM 23.0 °F 11.7 °F 1.4 °F 39% 29.72 in 10.0 mi SSW 11.5 mph 18.4 mph 0.00 in Snow Light Snow
9:54 AM 21.9 °F 12.5 °F 5.0 °F 48% 29.73 in 5.0 mi SSW 8.1 mph 18.4 mph 0.00 in Snow Light Snow
10:06 AM 21.2 °F 10.9 °F 6.8 °F 54% 29.71 in 2.5 mi SSW 9.2 mph 23.0 mph 0.00 in Snow Light Snow
10:27 AM 19.4 °F 8.6 °F 12.2 °F 74% 29.70 in 1.5 mi SSW 9.2 mph 25.3 mph 0.00 in Snow Light Snow
10:33 AM 19.4 °F 8.6 °F 12.2 °F 74% 29.70 in 0.8 mi SSW 9.2 mph 18.4 mph 0.00 in Snow Light Snow
10:41 AM 19.4 °F 9.5 °F 12.2 °F 74% 29.69 in 1.2 mi South 8.1 mph - 0.00 in Snow Light Snow
10:54 AM 21.0 °F 11.4 °F 10.9 °F 65% 29.68 in 4.0 mi SSW 8.1 mph - 0.00 in Snow Light Snow
11:11 AM 23.0 °F 14.7 °F 8.6 °F 54% 29.66 in 9.0 mi SSW 6.9 mph 18.4 mph 0.00 in   Overcast
11:54 AM 25.0 °F 12.6 °F 5.0 °F 43% 29.62 in 10.0 mi SSW 15.0 mph 24.2 mph 0.00 in   Overcast
12:54 PM 26.1 °F 16.8 °F 3.0 °F 37% 29.56 in 10.0 mi SSW 9.2 mph 19.6 mph N/A   Overcast
1:42 PM 26.6 °F 17.5 °F 3.2 °F 37% 29.53 in 10.0 mi SSW 9.2 mph 19.6 mph 0.00 in Snow Light Snow
1:54 PM 26.1 °F 17.6 °F 5.0 °F 41% 29.53 in 7.0 mi SW 8.1 mph - 0.00 in Snow Light Snow
2:11 PM 26.6 °F 17.5 °F 6.8 °F 43% 29.51 in 9.0 mi SW 9.2 mph - 0.00 in   Mostly Cloudy
2:54 PM 28.0 °F 18.6 °F 6.1 °F 39% 29.48 in 10.0 mi SSW 10.4 mph 18.4 mph 0.00 in   Mostly Cloudy
3:54 PM 28.9 °F 19.8 °F 7.0 °F 40% 29.48 in 10.0 mi SW 10.4 mph 17.3 mph N/A   Scattered Clouds
4:54 PM 30.0 °F 24.1 °F 8.1 °F 40% 29.49 in 10.0 mi SW 5.8 mph - N/A   Mostly Cloudy
5:54 PM 30.0 °F 24.1 °F 9.0 °F 41% 29.49 in 10.0 mi SW 5.8 mph - N/A   Overcast
6:54 PM 30.0 °F 24.1 °F 10.9 °F 45% 29.51 in 10.0 mi SSW 5.8 mph - N/A   Overcast
7:54 PM 30.0 °F 24.1 °F 12.0 °F 47% 29.52 in 10.0 mi SW 5.8 mph - N/A   Overcast
8:54 PM 30.0 °F 23.2 °F 17.1 °F 59% 29.53 in 10.0 mi SW 6.9 mph - N/A   Scattered Clouds
9:54 PM 28.9 °F 21.1 °F 17.1 °F 61% 29.55 in 10.0 mi WSW 8.1 mph - N/A   Scattered Clouds
10:28 PM 30.2 °F 17.1 °F 17.6 °F 60% 29.58 in 10.0 mi West 21.9 mph 32.2 mph 0.00 in Snow Light Snow
10:42 PM 30.2 °F 17.4 °F 19.4 °F 64% 29.59 in 9.0 mi West 20.7 mph 27.6 mph 0.00 in   Mostly Cloudy
10:51 PM 30.2 °F 17.4 °F 19.4 °F 64% 29.59 in 8.0 mi West 20.7 mph 32.2 mph 0.00 in Snow Light Snow
10:54 PM 30.0 °F 16.9 °F 19.0 °F 64% 29.60 in 8.0 mi West 21.9 mph 32.2 mph 0.00 in Snow Light Snow
11:06 PM 30.2 °F 18.5 °F 19.4 °F 64% 29.60 in 9.0 mi West 17.3 mph 25.3 mph 0.00 in   Mostly Cloudy
11:54 PM 28.0 °F 15.7 °F 15.1 °F 58% 29.63 in 10.0 mi West 17.3 mph 25.3 mph 0.00 in   Scattered Clouds